| time (UTC) | temp F | wind direction | speed knots | gust knots | rain 1hr in | rain 24hr in | rain mn in | humidity % | barometer mb |
| 20260502130410 | 58 | 253 | 0.0 | 0.0 | 0.00 | 0.00 | 0.00 | 83 | 1009.8 |
| 20260502123353 | 57 | 306 | 0.0 | 0.9 | 0.00 | 0.00 | 0.00 | 85 | 1009.5 |
| 20260502122850 | 58 | 309 | 0.0 | 0.0 | 0.00 | 0.00 | 0.00 | 84 | 1009.1 |
| 20260502122346 | 57 | 309 | 0.0 | 0.0 | 0.00 | 0.00 | 0.00 | 84 | 1009.5 |
| 20260502121845 | 57 | 309 | 0.0 | 0.0 | 0.00 | 0.00 | 0.00 | 84 | 1009.3 |
| 20260502121341 | 58 | 309 | 0.0 | 0.0 | 0.00 | 0.00 | 0.00 | 84 | 1009.3 |
| 20260502120839 | 58 | 309 | 0.0 | 0.0 | 0.00 | 0.00 | 0.00 | 84 | 1009.2 |
| 20260502120335 | 58 | 307 | 0.0 | 0.0 | 0.00 | 0.00 | 0.00 | 83 | 1009.3 |
| 20260502115832 | 58 | 22 | 0.0 | 0.0 | 0.00 | 0.00 | 0.00 | 83 | 1009.4 |
| 20260502115329 | 58 | 21 | 0.0 | 0.0 | 0.00 | 0.00 | 0.00 | 83 | 1009.3 |
| 20260502114826 | 58 | 21 | 0.0 | 0.0 | 0.00 | 0.00 | 0.00 | 82 | 1009.2 |
| 20260502114323 | 58 | 21 | 0.0 | 0.0 | 0.00 | 0.00 | 0.00 | 82 | 1009.2 |
| 20260502113820 | 58 | 21 | 0.0 | 0.0 | 0.00 | 0.00 | 0.00 | 82 | 1009.3 |
| 20260502113317 | 58 | 19 | 0.0 | 0.0 | 0.00 | 0.00 | 0.00 | 82 | 1009.5 |
| 20260502112816 | 58 | 26 | 0.0 | 0.0 | 0.00 | 0.00 | 0.00 | 82 | 1009.4 |
| 20260502112313 | 59 | 28 | 0.0 | 0.9 | 0.00 | 0.00 | 0.00 | 82 | 1009.3 |
| 20260502111810 | 59 | 13 | 0.0 | 0.0 | 0.00 | 0.00 | 0.00 | 81 | 1009.2 |
| 20260502111307 | 59 | 13 | 0.0 | 0.0 | 0.00 | 0.00 | 0.00 | 81 | 1009.2 |
| 20260502110805 | 59 | 17 | 0.0 | 0.0 | 0.00 | 0.00 | 0.00 | 81 | 1009.4 |
| 20260502110303 | 59 | 331 | 0.0 | 0.0 | 0.00 | 0.00 | 0.00 | 81 | 1009.5 |
| 20260502105800 | 59 | 13 | 0.9 | 0.9 | 0.00 | 0.00 | 0.00 | 81 | 1009.5 |
| 20260502105256 | 59 | 38 | 0.0 | 0.0 | 0.00 | 0.00 | 0.00 | 81 | 1009.5 |
| 20260502104754 | 59 | 38 | 0.0 | 0.0 | 0.00 | 0.00 | 0.00 | 81 | 1009.5 |
| 20260502104251 | 59 | 40 | 0.9 | 0.9 | 0.00 | 0.00 | 0.00 | 81 | 1009.6 |
| 20260502103749 | 59 | 26 | 0.0 | 0.0 | 0.00 | 0.00 | 0.00 | 80 | 1009.5 |
| 20260502103246 | 60 | 26 | 0.0 | 0.0 | 0.00 | 0.00 | 0.00 | 80 | 1009.5 |
| 20260502102743 | 60 | 9 | 0.0 | 0.9 | 0.00 | 0.00 | 0.00 | 80 | 1009.7 |
| 20260502102239 | 60 | 25 | 0.9 | 0.9 | 0.00 | 0.00 | 0.00 | 80 | 1009.5 |
| 20260502101738 | 60 | 31 | 0.9 | 0.9 | 0.00 | 0.00 | 0.00 | 80 | 1009.8 |
| 20260502101235 | 60 | 47 | 0.9 | 0.9 | 0.00 | 0.00 | 0.00 | 80 | 1009.7 |
| 20260502100733 | 60 | 28 | 0.0 | 0.9 | 0.00 | 0.00 | 0.00 | 81 | 1009.7 |
| 20260502100232 | 60 | 29 | 0.9 | 0.9 | 0.00 | 0.00 | 0.00 | 81 | 1009.8 |
| 20260502091206 | 62 | 278 | 0.0 | 0.9 | 0.00 | 0.00 | 0.00 | 78 | 1010.3 |
| 20260502090703 | 62 | 27 | 0.0 | 0.0 | 0.00 | 0.00 | 0.00 | 78 | 1010.2 |
| 20260502090200 | 62 | 277 | 0.0 | 0.0 | 0.00 | 0.00 | 0.00 | 77 | 1010.4 |
| 20260502071055 | 67 | 256 | 1.7 | 3.5 | 0.00 | 0.00 | 0.00 | 70 | 1010.5 |
| 20260502070553 | 66 | 273 | 0.9 | 0.9 | 0.00 | 0.00 | 0.00 | 72 | 1010.4 |
| 20260502070051 | 66 | 359 | 0.0 | 0.0 | 0.00 | 0.00 | 0.00 | 73 | 1010.4 |
| 20260502065550 | 66 | 281 | 0.0 | 0.0 | 0.00 | 0.00 | 0.00 | 73 | 1010.3 |
| 20260502065047 | 66 | 281 | 0.0 | 0.0 | 0.00 | 0.00 | 0.00 | 72 | 1010.4 |
| 20260502064545 | 66 | 265 | 1.7 | 1.7 | 0.00 | 0.00 | 0.00 | 72 | 1010.3 |
| 20260502064042 | 66 | 252 | 0.0 | 0.9 | 0.00 | 0.00 | 0.00 | 72 | 1010.3 |
| 20260502063540 | 66 | 257 | 0.0 | 0.0 | 0.00 | 0.00 | 0.00 | 72 | 1010.5 |
| 20260502063037 | 66 | 210 | 0.9 | 0.9 | 0.00 | 0.00 | 0.00 | 72 | 1010.5 |
| 20260502062534 | 67 | 221 | 0.0 | 0.0 | 0.00 | 0.00 | 0.00 | 71 | 1010.0 |
| 20260502062032 | 67 | 254 | 0.9 | 0.9 | 0.00 | 0.00 | 0.00 | 70 | 1010.1 |
| 20260502061530 | 67 | 209 | 0.0 | 0.0 | 0.00 | 0.00 | 0.00 | 70 | 1010.3 |
| 20260502061027 | 67 | 59 | 0.0 | 0.0 | 0.00 | 0.00 | 0.00 | 69 | 1010.2 |
| 20260502060522 | 67 | 336 | 0.0 | 0.0 | 0.00 | 0.00 | 0.00 | 69 | 1010.3 |
| 20260502060019 | 67 | 21 | 0.0 | 0.0 | 0.00 | 0.00 | 0.00 | 68 | 1010.2 |
| 20260502055516 | 67 | 278 | 0.0 | 0.0 | 0.00 | 0.00 | 0.00 | 68 | 1010.0 |
| 20260502055015 | 67 | 122 | 0.0 | 0.9 | 0.00 | 0.00 | 0.00 | 68 | 1010.0 |
| 20260502054513 | 67 | 117 | 0.0 | 0.0 | 0.00 | 0.00 | 0.00 | 67 | 1010.1 |
| 20260502054010 | 67 | 143 | 0.0 | 0.0 | 0.00 | 0.00 | 0.00 | 66 | 1010.1 |
| 20260502053507 | 68 | 144 | 0.0 | 0.0 | 0.00 | 0.00 | 0.00 | 66 | 1010.1 |
| 20260502053005 | 68 | 142 | 0.0 | 0.0 | 0.00 | 0.00 | 0.00 | 64 | 1010.0 |
| 20260502052503 | 69 | 69 | 0.0 | 0.0 | 0.00 | 0.00 | 0.00 | 63 | 1010.1 |
| 20260502052001 | 69 | 265 | 0.0 | 0.0 | 0.00 | 0.00 | 0.00 | 62 | 1010.1 |
| 20260502051459 | 69 | 256 | 0.9 | 0.9 | 0.00 | 0.00 | 0.00 | 61 | 1009.9 |
| 20260502050955 | 69 | 239 | 0.9 | 0.9 | 0.00 | 0.00 | 0.00 | 61 | 1009.9 |
| 20260502050452 | 69 | 158 | 0.0 | 0.9 | 0.00 | 0.00 | 0.00 | 61 | 1010.0 |
| 20260502045949 | 69 | 121 | 0.0 | 0.9 | 0.00 | 0.00 | 0.00 | 60 | 1009.9 |
| 20260502045446 | 69 | 231 | 0.0 | 0.0 | 0.00 | 0.00 | 0.00 | 61 | 1010.0 |
| 20260502044943 | 70 | 248 | 0.0 | 0.0 | 0.00 | 0.00 | 0.00 | 60 | 1009.7 |
| 20260502044439 | 70 | 247 | 0.0 | 0.0 | 0.00 | 0.00 | 0.00 | 59 | 1009.8 |
| 20260502043936 | 70 | 247 | 0.0 | 0.0 | 0.00 | 0.00 | 0.00 | 58 | 1009.9 |
| 20260502043434 | 70 | 247 | 0.0 | 0.9 | 0.00 | 0.00 | 0.00 | 58 | 1010.0 |
| 20260502042933 | 71 | 247 | 0.0 | 0.0 | 0.00 | 0.00 | 0.00 | 57 | 1009.9 |
| 20260502042430 | 71 | 246 | 0.0 | 0.0 | 0.00 | 0.00 | 0.00 | 56 | 1009.6 |
| 20260502041927 | 71 | 250 | 0.0 | 0.0 | 0.00 | 0.00 | 0.00 | 56 | 1009.6 |
| 20260502041425 | 71 | 255 | 0.0 | 0.0 | 0.00 | 0.00 | 0.00 | 56 | 1009.4 |
| 20260502040922 | 72 | 254 | 0.0 | 0.0 | 0.00 | 0.00 | 0.00 | 55 | 1009.6 |
| 20260502040418 | 72 | 261 | 0.9 | 0.9 | 0.00 | 0.00 | 0.00 | 55 | 1009.5 |
| 20260502035915 | 72 | 263 | 0.0 | 0.9 | 0.00 | 0.00 | 0.00 | 55 | 1009.3 |
| 20260502035411 | 72 | 240 | 0.0 | 0.9 | 0.00 | 0.00 | 0.00 | 56 | 1009.4 |
| 20260502034909 | 72 | 245 | 0.0 | 0.0 | 0.00 | 0.00 | 0.00 | 55 | 1009.3 |
| 20260502034408 | 73 | 245 | 0.0 | 0.0 | 0.00 | 0.00 | 0.00 | 54 | 1009.5 |
| 20260502033906 | 73 | 245 | 0.0 | 0.0 | 0.00 | 0.00 | 0.00 | 53 | 1009.2 |
| 20260502033403 | 73 | 245 | 0.0 | 0.0 | 0.00 | 0.00 | 0.00 | 53 | 1009.1 |
| 20260502032859 | 74 | 245 | 0.0 | 0.0 | 0.00 | 0.00 | 0.00 | 53 | 1009.3 |
| 20260502032355 | 74 | 245 | 0.9 | 0.9 | 0.00 | 0.00 | 0.00 | 53 | 1009.0 |
| 20260502031853 | 75 | 246 | 0.0 | 0.0 | 0.00 | 0.00 | 0.00 | 51 | 1008.9 |
| 20260502031351 | 75 | 245 | 0.0 | 0.0 | 0.00 | 0.00 | 0.00 | 50 | 1009.0 |
| 20260502030849 | 76 | 247 | 0.0 | 0.0 | 0.00 | 0.00 | 0.00 | 49 | 1008.8 |
| 20260502030347 | 76 | 247 | 1.7 | 1.7 | 0.00 | 0.00 | 0.00 | 48 | 1008.9 |
| 20260502025844 | 77 | 257 | 0.9 | 0.9 | 0.00 | 0.00 | 0.00 | 46 | 1008.8 |
| 20260502025342 | 77 | 257 | 0.0 | 0.0 | 0.00 | 0.00 | 0.00 | 46 | 1008.9 |
| 20260502024839 | 78 | 257 | 0.0 | 0.0 | 0.00 | 0.00 | 0.00 | 45 | 1008.9 |
| 20260502024337 | 78 | 257 | 0.0 | 0.0 | 0.00 | 0.00 | 0.00 | 43 | 1009.0 |
| 20260502023835 | 79 | 256 | 0.0 | 0.0 | 0.00 | 0.00 | 0.00 | 42 | 1008.8 |
| 20260502023332 | 79 | 253 | 0.0 | 0.0 | 0.00 | 0.00 | 0.00 | 42 | 1009.0 |
| 20260502022830 | 80 | 250 | 0.0 | 0.0 | 0.00 | 0.00 | 0.00 | 41 | 1008.9 |
| 20260502022326 | 81 | 248 | 0.0 | 0.0 | 0.00 | 0.00 | 0.00 | 40 | 1008.8 |
| 20260502021823 | 81 | 248 | 0.0 | 0.0 | 0.00 | 0.00 | 0.00 | 39 | 1008.8 |
| 20260502021320 | 82 | 306 | 0.0 | 0.0 | 0.00 | 0.00 | 0.00 | 37 | 1008.8 |
| 20260502020818 | 83 | 282 | 0.0 | 0.0 | 0.00 | 0.00 | 0.00 | 35 | 1008.9 |
| 20260502020315 | 83 | 291 | 0.0 | 0.0 | 0.00 | 0.00 | 0.00 | 34 | 1008.8 |
| 20260502015812 | 84 | 236 | 0.9 | 0.9 | 0.00 | 0.00 | 0.00 | 33 | 1008.9 |
| 20260502015309 | 84 | 265 | 0.9 | 0.9 | 0.00 | 0.00 | 0.00 | 32 | 1008.9 |
| 20260502014806 | 85 | 224 | 1.7 | 1.7 | 0.00 | 0.00 | 0.00 | 31 | 1008.7 |
| 20260502014303 | 85 | 228 | 0.0 | 0.9 | 0.00 | 0.00 | 0.00 | 31 | 1008.8 |
| 20260502013759 | 85 | 213 | 0.9 | 0.9 | 0.00 | 0.00 | 0.00 | 33 | 1008.8 |
| 20260502013255 | 85 | 255 | 1.7 | 1.7 | 0.00 | 0.00 | 0.00 | 32 | 1008.9 |
| 20260502012751 | 86 | 240 | 1.7 | 3.5 | 0.00 | 0.00 | 0.00 | 31 | 1008.7 |
| 20260502012249 | 86 | 238 | 0.0 | 0.9 | 0.00 | 0.00 | 0.00 | 32 | 1009.0 |
| 20260502011747 | 86 | 40 | 0.0 | 0.0 | 0.00 | 0.00 | 0.00 | 30 | 1008.9 |
| 20260502011242 | 87 | 17 | 0.0 | 0.9 | 0.00 | 0.00 | 0.00 | 29 | 1008.8 |
| 20260502010740 | 87 | 132 | 0.0 | 0.0 | 0.00 | 0.00 | 0.00 | 27 | 1008.7 |
| 20260502010236 | 87 | 160 | 0.0 | 0.0 | 0.00 | 0.00 | 0.00 | 31 | 1008.9 |
| 20260502005733 | 87 | 237 | 0.9 | 0.9 | 0.00 | 0.00 | 0.00 | 30 | 1008.9 |
| 20260502005231 | 87 | 239 | 1.7 | 1.7 | 0.00 | 0.00 | 0.00 | 27 | 1008.9 |
| 20260502004728 | 87 | 348 | 0.0 | 0.9 | 0.00 | 0.00 | 0.00 | 26 | 1008.9 |
| 20260502004224 | 87 | 277 | 0.0 | 0.9 | 0.00 | 0.00 | 0.00 | 28 | 1009.0 |
| 20260502003722 | 87 | 95 | 0.9 | 0.9 | 0.00 | 0.00 | 0.00 | 27 | 1008.9 |
| 20260502003219 | 87 | 259 | 3.5 | 4.3 | 0.00 | 0.00 | 0.00 | 26 | 1009.0 |
| 20260502002714 | 87 | 17 | 0.9 | 1.7 | 0.00 | 0.00 | 0.00 | 29 | 1008.9 |
| 20260502002213 | 87 | 251 | 1.7 | 1.7 | 0.00 | 0.00 | 0.00 | 28 | 1009.0 |
| 20260502001709 | 87 | 269 | 1.7 | 1.7 | 0.00 | 0.00 | 0.00 | 26 | 1008.9 |
| 20260502001208 | 87 | 267 | 2.6 | 3.5 | 0.00 | 0.00 | 0.00 | 28 | 1009.0 |
| 20260502000705 | 87 | 244 | 2.6 | 4.3 | 0.00 | 0.00 | 0.00 | 30 | 1009.1 |
| 20260502000204 | 88 | 273 | 3.5 | 4.3 | 0.00 | 0.00 | 0.00 | 29 | 1009.1 |
| 20260501235658 | 88 | 249 | 1.7 | 1.7 | 0.00 | 0.00 | 0.00 | 29 | 1009.1 |
| 20260501235154 | 88 | 348 | 0.9 | 0.9 | 0.00 | 0.00 | 0.00 | 30 | 1009.1 |
| 20260501234650 | 88 | 274 | 0.0 | 0.9 | 0.00 | 0.00 | 0.00 | 28 | 1009.1 |
| 20260501234147 | 87 | 61 | 0.0 | 1.7 | 0.00 | 0.00 | 0.00 | 28 | 1009.3 |
| 20260501233645 | 87 | 237 | 1.7 | 3.5 | 0.00 | 0.00 | 0.00 | 30 | 1009.4 |
| 20260501233142 | 87 | 266 | 3.5 | 4.3 | 0.00 | 0.00 | 0.00 | 30 | 1009.3 |
| 20260501232638 | 86 | 254 | 2.6 | 3.5 | 0.00 | 0.00 | 0.00 | 31 | 1009.4 |
| 20260501232136 | 86 | 277 | 3.5 | 5.2 | 0.00 | 0.00 | 0.00 | 32 | 1009.7 |
| 20260501231633 | 87 | 22 | 0.0 | 0.9 | 0.00 | 0.00 | 0.00 | 31 | 1009.4 |
| 20260501231131 | 86 | 276 | 0.9 | 1.7 | 0.00 | 0.00 | 0.00 | 31 | 1009.7 |
| 20260501230630 | 86 | 255 | 2.6 | 3.5 | 0.00 | 0.00 | 0.00 | 31 | 1009.4 |
| 20260501230127 | 87 | 264 | 4.3 | 5.2 | 0.00 | 0.00 | 0.00 | 30 | 1009.5 |
| 20260501225625 | 86 | 249 | 4.3 | 6.1 | 0.00 | 0.00 | 0.00 | 31 | 1009.5 |
| 20260501225121 | 87 | 269 | 2.6 | 4.3 | 0.00 | 0.00 | 0.00 | 32 | 1009.8 |
| 20260501224618 | 86 | 262 | 2.6 | 3.5 | 0.00 | 0.00 | 0.00 | 33 | 1009.9 |
| 20260501224115 | 86 | 255 | 2.6 | 3.5 | 0.00 | 0.00 | 0.00 | 32 | 1010.1 |
| 20260501223611 | 87 | 258 | 2.6 | 3.5 | 0.00 | 0.00 | 0.00 | 32 | 1010.0 |
| 20260501223108 | 87 | 298 | 0.9 | 1.7 | 0.00 | 0.00 | 0.00 | 32 | 1010.2 |
| 20260501222604 | 88 | 341 | 0.0 | 0.9 | 0.00 | 0.00 | 0.00 | 32 | 1010.1 |
| 20260501222101 | 87 | 288 | 2.6 | 3.5 | 0.00 | 0.00 | 0.00 | 32 | 1010.3 |
| 20260501221558 | 86 | 261 | 0.9 | 0.9 | 0.00 | 0.00 | 0.00 | 32 | 1010.2 |
| 20260501221055 | 87 | 251 | 0.9 | 0.9 | 0.00 | 0.00 | 0.00 | 33 | 1010.5 |
| 20260501220553 | 86 | 74 | 1.7 | 1.7 | 0.00 | 0.00 | 0.00 | 32 | 1010.6 |
| 20260501220050 | 87 | 256 | 2.6 | 3.5 | 0.00 | 0.00 | 0.00 | 32 | 1010.6 |
| 20260501215546 | 86 | 56 | 0.9 | 0.9 | 0.00 | 0.00 | 0.00 | 32 | 1010.6 |
| 20260501215041 | 86 | 231 | 1.7 | 1.7 | 0.00 | 0.00 | 0.00 | 34 | 1010.4 |
| 20260501214537 | 86 | 267 | 2.6 | 4.3 | 0.00 | 0.00 | 0.00 | 34 | 1010.9 |
| 20260501214033 | 85 | 43 | 2.6 | 3.5 | 0.00 | 0.00 | 0.00 | 34 | 1011.0 |
| 20260501213530 | 85 | 303 | 0.0 | 0.9 | 0.00 | 0.00 | 0.00 | 35 | 1011.0 |
| 20260501213026 | 85 | 321 | 1.7 | 1.7 | 0.00 | 0.00 | 0.00 | 34 | 1011.1 |
| 20260501212522 | 85 | 257 | 2.6 | 3.5 | 0.00 | 0.00 | 0.00 | 34 | 1011.0 |
| 20260501212020 | 86 | 322 | 0.9 | 0.9 | 0.00 | 0.00 | 0.00 | 34 | 1011.2 |
| 20260501211516 | 86 | 30 | 0.9 | 0.9 | 0.00 | 0.00 | 0.00 | 33 | 1011.0 |
| 20260501211014 | 85 | 320 | 0.9 | 0.9 | 0.00 | 0.00 | 0.00 | 34 | 1011.1 |
| 20260501210510 | 84 | 235 | 2.6 | 3.5 | 0.00 | 0.00 | 0.00 | 35 | 1011.1 |
| 20260501210007 | 84 | 301 | 0.9 | 1.7 | 0.00 | 0.00 | 0.00 | 33 | 1011.1 |
| 20260501205504 | 83 | 267 | 0.9 | 0.9 | 0.00 | 0.00 | 0.00 | 36 | 1011.2 |
| 20260501205002 | 83 | 229 | 1.7 | 3.5 | 0.00 | 0.00 | 0.00 | 35 | 1011.3 |
| 20260501204457 | 83 | 253 | 4.3 | 5.2 | 0.00 | 0.00 | 0.00 | 36 | 1011.3 |
| 20260501203954 | 82 | 263 | 1.7 | 1.7 | 0.00 | 0.00 | 0.00 | 38 | 1011.3 |
| 20260501203450 | 83 | 242 | 2.6 | 4.3 | 0.00 | 0.00 | 0.00 | 37 | 1011.5 |
| 20260501202948 | 82 | 320 | 0.9 | 0.9 | 0.00 | 0.00 | 0.00 | 38 | 1011.5 |
| 20260501202444 | 81 | 241 | 1.7 | 1.7 | 0.00 | 0.00 | 0.00 | 39 | 1011.5 |
| 20260501201941 | 82 | 322 | 0.9 | 0.9 | 0.00 | 0.00 | 0.00 | 40 | 1011.6 |
| 20260501201438 | 82 | 247 | 1.7 | 1.7 | 0.00 | 0.00 | 0.00 | 39 | 1011.5 |
| 20260501200935 | 83 | 328 | 0.9 | 1.7 | 0.00 | 0.00 | 0.00 | 40 | 1011.8 |
| 20260501200432 | 82 | 56 | 1.7 | 1.7 | 0.00 | 0.00 | 0.00 | 39 | 1011.8 |
| 20260501195929 | 81 | 214 | 2.6 | 3.5 | 0.00 | 0.00 | 0.00 | 41 | 1012.0 |
| 20260501195426 | 81 | 255 | 2.6 | 3.5 | 0.00 | 0.00 | 0.00 | 41 | 1012.0 |
| 20260501194921 | 81 | 33 | 0.9 | 1.7 | 0.00 | 0.00 | 0.00 | 41 | 1012.0 |
| 20260501194417 | 80 | 227 | 0.9 | 1.7 | 0.00 | 0.00 | 0.00 | 43 | 1012.1 |
| 20260501193913 | 80 | 283 | 3.5 | 3.5 | 0.00 | 0.00 | 0.00 | 44 | 1012.0 |
| 20260501193412 | 80 | 12 | 0.0 | 0.9 | 0.00 | 0.00 | 0.00 | 42 | 1012.4 |
| 20260501192909 | 79 | 14 | 0.9 | 0.9 | 0.00 | 0.00 | 0.00 | 43 | 1012.3 |
| 20260501192406 | 80 | 251 | 1.7 | 1.7 | 0.00 | 0.00 | 0.00 | 44 | 1012.3 |
| 20260501191903 | 79 | 259 | 3.5 | 4.3 | 0.00 | 0.00 | 0.00 | 44 | 1012.4 |
| 20260501191401 | 79 | 262 | 1.7 | 1.7 | 0.00 | 0.00 | 0.00 | 46 | 1012.6 |
| 20260501190858 | 78 | 227 | 1.7 | 3.5 | 0.00 | 0.00 | 0.00 | 46 | 1012.5 |
| 20260501190353 | 79 | 33 | 0.9 | 0.9 | 0.00 | 0.00 | 0.00 | 45 | 1012.6 |
| 20260501185848 | 78 | 248 | 2.6 | 3.5 | 0.00 | 0.00 | 0.00 | 46 | 1012.9 |
| 20260501185345 | 78 | 246 | 1.7 | 1.7 | 0.00 | 0.00 | 0.00 | 48 | 1012.8 |
| 20260501184841 | 77 | 244 | 0.9 | 0.9 | 0.00 | 0.00 | 0.00 | 47 | 1012.9 |
| 20260501184337 | 77 | 11 | 0.9 | 0.9 | 0.00 | 0.00 | 0.00 | 48 | 1012.9 |
| 20260501183832 | 76 | 342 | 0.9 | 1.7 | 0.00 | 0.00 | 0.00 | 48 | 1013.0 |
| 20260501183330 | 76 | 281 | 2.6 | 3.5 | 0.00 | 0.00 | 0.00 | 49 | 1012.9 |
| 20260501182826 | 75 | 273 | 0.9 | 0.9 | 0.00 | 0.00 | 0.00 | 51 | 1013.0 |
| 20260501182324 | 76 | 274 | 3.5 | 4.3 | 0.00 | 0.00 | 0.00 | 51 | 1013.0 |
| 20260501181820 | 76 | 259 | 2.6 | 3.5 | 0.00 | 0.00 | 0.00 | 50 | 1013.1 |
| 20260501181317 | 75 | 262 | 1.7 | 1.7 | 0.00 | 0.00 | 0.00 | 51 | 1013.0 |
| 20260501180814 | 75 | 286 | 1.7 | 1.7 | 0.00 | 0.00 | 0.00 | 52 | 1013.3 |
| 20260501180310 | 75 | 272 | 0.0 | 1.7 | 0.00 | 0.00 | 0.00 | 51 | 1013.2 |
| 20260501175808 | 74 | 265 | 2.6 | 3.5 | 0.00 | 0.00 | 0.00 | 52 | 1013.2 |
| 20260501175306 | 74 | 255 | 2.6 | 3.5 | 0.00 | 0.00 | 0.00 | 51 | 1013.2 |
| 20260501174801 | 74 | 275 | 0.9 | 1.7 | 0.00 | 0.00 | 0.00 | 51 | 1013.2 |
| 20260501174259 | 73 | 305 | 1.7 | 1.7 | 0.00 | 0.00 | 0.00 | 53 | 1013.3 |
| 20260501173756 | 73 | 254 | 1.7 | 1.7 | 0.00 | 0.00 | 0.00 | 53 | 1013.2 |
| 20260501173254 | 73 | 17 | 1.7 | 1.7 | 0.00 | 0.00 | 0.00 | 53 | 1013.2 |
| 20260501172749 | 72 | 271 | 2.6 | 3.5 | 0.00 | 0.00 | 0.00 | 54 | 1013.4 |
| 20260501172245 | 72 | 333 | 1.7 | 3.5 | 0.00 | 0.00 | 0.00 | 56 | 1013.5 |
| 20260501171740 | 71 | 257 | 0.0 | 0.9 | 0.00 | 0.00 | 0.00 | 57 | 1013.3 |
| 20260501171237 | 71 | 278 | 1.7 | 1.7 | 0.00 | 0.00 | 0.00 | 57 | 1013.5 |
| 20260501170734 | 71 | 249 | 1.7 | 1.7 | 0.00 | 0.00 | 0.00 | 57 | 1013.6 |
| 20260501170231 | 70 | 245 | 2.6 | 3.5 | 0.00 | 0.00 | 0.00 | 59 | 1013.5 |
| 20260501165729 | 70 | 266 | 0.9 | 1.7 | 0.00 | 0.00 | 0.00 | 58 | 1013.5 |
| 20260501165226 | 69 | 289 | 1.7 | 1.7 | 0.00 | 0.00 | 0.00 | 60 | 1013.5 |
| 20260501164724 | 69 | 246 | 0.9 | 0.9 | 0.00 | 0.00 | 0.00 | 61 | 1013.5 |
| 20260501164220 | 69 | 278 | 1.7 | 1.7 | 0.00 | 0.00 | 0.00 | 61 | 1013.4 |
| 20260501163717 | 68 | 295 | 1.7 | 1.7 | 0.00 | 0.00 | 0.00 | 63 | 1013.5 |
| 20260501163214 | 68 | 265 | 1.7 | 3.5 | 0.00 | 0.00 | 0.00 | 64 | 1013.4 |
| 20260501162710 | 68 | 237 | 1.7 | 1.7 | 0.00 | 0.00 | 0.00 | 62 | 1013.6 |
| 20260501162206 | 68 | 273 | 0.9 | 0.9 | 0.00 | 0.00 | 0.00 | 64 | 1013.7 |
| 20260501161704 | 67 | 243 | 0.9 | 1.7 | 0.00 | 0.00 | 0.00 | 64 | 1013.7 |
| 20260501161201 | 68 | 76 | 0.9 | 0.9 | 0.00 | 0.00 | 0.00 | 63 | 1013.5 |
| 20260501160657 | 67 | 29 | 0.9 | 0.9 | 0.00 | 0.00 | 0.00 | 64 | 1013.6 |
| 20260501160154 | 66 | 42 | 0.0 | 0.0 | 0.00 | 0.00 | 0.00 | 65 | 1013.6 |
| 20260501155651 | 65 | 22 | 0.9 | 0.9 | 0.00 | 0.00 | 0.00 | 68 | 1013.5 |
| 20260501155148 | 64 | 273 | 2.6 | 3.5 | 0.00 | 0.00 | 0.00 | 69 | 1013.5 |
| 20260501154645 | 65 | 272 | 1.7 | 1.7 | 0.00 | 0.00 | 0.00 | 66 | 1013.6 |
| 20260501154142 | 64 | 17 | 0.9 | 1.7 | 0.00 | 0.00 | 0.00 | 67 | 1013.3 |
| 20260501153640 | 64 | 44 | 0.9 | 0.9 | 0.00 | 0.00 | 0.00 | 67 | 1013.5 |
| 20260501153137 | 63 | 49 | 0.0 | 0.9 | 0.00 | 0.00 | 0.00 | 68 | 1013.7 |
| 20260501152633 | 62 | 33 | 0.9 | 0.9 | 0.00 | 0.00 | 0.00 | 71 | 1013.6 |
| 20260501152130 | 62 | 286 | 2.6 | 3.5 | 0.00 | 0.00 | 0.00 | 72 | 1013.3 |
| 20260501151627 | 62 | 274 | 1.7 | 1.7 | 0.00 | 0.00 | 0.00 | 73 | 1013.2 |
| 20260501151124 | 61 | 304 | 2.6 | 3.5 | 0.00 | 0.00 | 0.00 | 74 | 1013.4 |
| 20260501150620 | 61 | 266 | 1.7 | 1.7 | 0.00 | 0.00 | 0.00 | 74 | 1013.3 |
| 20260501150116 | 61 | 267 | 0.9 | 0.9 | 0.00 | 0.00 | 0.00 | 75 | 1013.4 |
| 20260501145612 | 62 | 358 | 0.0 | 0.0 | 0.00 | 0.00 | 0.00 | 74 | 1013.2 |
| 20260501145111 | 61 | 320 | 0.0 | 0.0 | 0.00 | 0.00 | 0.00 | 76 | 1013.2 |
| 20260501144607 | 60 | 319 | 0.0 | 0.0 | 0.00 | 0.00 | 0.00 | 76 | 1013.0 |
| 20260501144106 | 60 | 301 | 0.0 | 0.9 | 0.00 | 0.00 | 0.00 | 76 | 1012.8 |
| 20260501143603 | 60 | 301 | 0.0 | 0.9 | 0.00 | 0.00 | 0.00 | 75 | 1013.0 |
| 20260501143100 | 59 | 300 | 0.0 | 0.0 | 0.00 | 0.00 | 0.00 | 76 | 1012.7 |
| 20260501142557 | 58 | 298 | 0.0 | 0.9 | 0.00 | 0.00 | 0.00 | 78 | 1012.7 |
| 20260501142054 | 58 | 294 | 0.9 | 0.9 | 0.00 | 0.00 | 0.00 | 80 | 1012.7 |
| 20260501141549 | 58 | 68 | 0.0 | 0.0 | 0.00 | 0.00 | 0.00 | 84 | 1012.7 |